Météo par heure à Alimovskiy

Ce jour, 15 Mai, Samedi

Heure Température Précipitation Vent Pression Humidité
00:00 +19°C° 0 mm 3 m/s 750 mmHg 83%
01:00 +19°C° 0 mm 3 m/s 749 mmHg 79%
02:00 +18°C° 0 mm 3 m/s 749 mmHg 76%
03:00 +18°C° 0 mm 3 m/s 749 mmHg 74%
04:00 +18°C° 0 mm 3 m/s 750 mmHg 72%
05:00 +18°C° 0 mm 3 m/s 750 mmHg 71%
06:00 +18°C° 0 mm 3 m/s 750 mmHg 69%
07:00 +19°C° 0 mm 4 m/s 750 mmHg 63%
08:00 +21°C° 0 mm 4 m/s 750 mmHg 57%
09:00 +22°C° 0 mm 5 m/s 750 mmHg 51%
10:00 +23°C° 0 mm 4 m/s 750 mmHg 50%
11:00 +26°C° 0 mm 4 m/s 750 mmHg 49%
12:00 +27°C° 0 mm 4 m/s 750 mmHg 48%
13:00 +27°C° 0.1 mm 4 m/s 750 mmHg 48%
14:00 +28°C° 0.1 mm 4 m/s 750 mmHg 49%
15:00 +28°C° 0.1 mm 4 m/s 750 mmHg 49%
16:00 +28°C° 0 mm 3 m/s 750 mmHg 52%
17:00 +28°C° 0 mm 3 m/s 750 mmHg 55%
18:00 +27°C° 0 mm 2 m/s 750 mmHg 59%
19:00 +26°C° 0 mm 2 m/s 750 mmHg 63%
20:00 +24°C° 0 mm 1 m/s 750 mmHg 67%
21:00 +22°C° 0 mm 1 m/s 750 mmHg 71%
22:00 +22°C° 0.1 mm 1 m/s 750 mmHg 74%
23:00 +21°C° 0.1 mm 1 m/s 750 mmHg 77%

Demain, 16 Mai, Dimanche

Heure Température Précipitation Vent Pression Humidité
00:00 +20°C° 0.1 mm 1 m/s 750 mmHg 80%
01:00 +20°C° 0 mm 1 m/s 750 mmHg 80%
02:00 +18°C° 0 mm 2 m/s 750 mmHg 80%
03:00 +18°C° 0 mm 2 m/s 750 mmHg 81%
04:00 +18°C° 0 mm 2 m/s 750 mmHg 77%
05:00 +18°C° 0 mm 2 m/s 750 mmHg 73%
06:00 +18°C° 0 mm 2 m/s 750 mmHg 70%
07:00 +19°C° 0 mm 2 m/s 750 mmHg 62%
08:00 +21°C° 0 mm 3 m/s 751 mmHg 54%
09:00 +22°C° 0 mm 4 m/s 751 mmHg 45%
10:00 +25°C° 0 mm 4 m/s 751 mmHg 41%
11:00 +26°C° 0 mm 4 m/s 751 mmHg 38%
12:00 +28°C° 0 mm 4 m/s 751 mmHg 34%
13:00 +29°C° 0 mm 5 m/s 750 mmHg 32%
14:00 +29°C° 0 mm 5 m/s 750 mmHg 31%
15:00 +30°C° 0 mm 5 m/s 750 mmHg 29%
16:00 +29°C° 0 mm 4 m/s 750 mmHg 36%
17:00 +28°C° 0 mm 4 m/s 749 mmHg 43%
18:00 +28°C° 0 mm 3 m/s 749 mmHg 50%
19:00 +26°C° 0 mm 3 m/s 749 mmHg 53%
20:00 +24°C° 0 mm 3 m/s 749 mmHg 56%
21:00 +21°C° 0 mm 4 m/s 749 mmHg 59%
22:00 +21°C° 0 mm 4 m/s 749 mmHg 59%
23:00 +20°C° 0 mm 4 m/s 749 mmHg 58%

Après-demain, 17 Mai, Lundi

Heure Température Précipitation Vent Pression Humidité
00:00 +19°C° 0 mm 4 m/s 749 mmHg 58%
01:00 +19°C° 0 mm 4 m/s 749 mmHg 57%
02:00 +19°C° 0 mm 4 m/s 748 mmHg 55%
03:00 +18°C° 0 mm 4 m/s 748 mmHg 53%
04:00 +18°C° 0 mm 4 m/s 748 mmHg 54%
05:00 +18°C° 0 mm 4 m/s 748 mmHg 55%
06:00 +18°C° 0 mm 4 m/s 749 mmHg 56%
07:00 +20°C° 0 mm 5 m/s 749 mmHg 51%
08:00 +23°C° 0 mm 6 m/s 749 mmHg 47%
09:00 +26°C° 0 mm 7 m/s 749 mmHg 42%
10:00 +27°C° 0 mm 7 m/s 749 mmHg 40%
11:00 +29°C° 0 mm 8 m/s 748 mmHg 37%
12:00 +31°C° 0 mm 8 m/s 748 mmHg 34%
13:00 +31°C° 0 mm 8 m/s 748 mmHg 34%
14:00 +32°C° 0 mm 8 m/s 748 mmHg 34%
15:00 +32°C° 0 mm 8 m/s 748 mmHg 34%
16:00 +30°C° 0 mm 7 m/s 747 mmHg 37%
17:00 +29°C° 0 mm 6 m/s 747 mmHg 40%
18:00 +28°C° 0 mm 5 m/s 747 mmHg 43%
19:00 +26°C° 0 mm 4 m/s 747 mmHg 47%
20:00 +23°C° 0 mm 4 m/s 747 mmHg 50%
21:00 +21°C° 0 mm 4 m/s 748 mmHg 53%
22:00 +20°C° 0 mm 4 m/s 747 mmHg 52%
23:00 +20°C° 0 mm 3 m/s 747 mmHg 51%

18 Mai, Mardi

Heure Température Précipitation Vent Pression Humidité
00:00 +19°C° 0 mm 3 m/s 747 mmHg 50%
01:00 +18°C° 0 mm 3 m/s 747 mmHg 50%
02:00 +17°C° 0 mm 3 m/s 747 mmHg 50%
03:00 +17°C° 0 mm 3 m/s 747 mmHg 50%
04:00 +17°C° 0 mm 2 m/s 747 mmHg 53%
05:00 +17°C° 0 mm 2 m/s 748 mmHg 56%
06:00 +18°C° 0 mm 2 m/s 748 mmHg 59%
07:00 +20°C° 0 mm 1 m/s 748 mmHg 56%
08:00 +22°C° 0 mm 1 m/s 747 mmHg 53%
09:00 +24°C° 0 mm 1 m/s 747 mmHg 50%
10:00 +25°C° 0 mm 2 m/s 747 mmHg 47%
11:00 +26°C° 0 mm 2 m/s 747 mmHg 43%
12:00 +27°C° 0 mm 2 m/s 747 mmHg 39%
13:00 +28°C° 0 mm 2 m/s 747 mmHg 40%
14:00 +28°C° 0 mm 2 m/s 747 mmHg 40%
15:00 +28°C° 0 mm 3 m/s 747 mmHg 41%
16:00 +27°C° 0 mm 3 m/s 747 mmHg 49%
17:00 +25°C° 0 mm 4 m/s 747 mmHg 57%
18:00 +23°C° 0 mm 5 m/s 747 mmHg 66%
19:00 +22°C° 0 mm 4 m/s 748 mmHg 68%
20:00 +21°C° 0 mm 3 m/s 748 mmHg 71%
21:00 +20°C° 0 mm 3 m/s 748 mmHg 74%
22:00 +19°C° 0 mm 3 m/s 748 mmHg 75%
23:00 +19°C° 0 mm 2 m/s 748 mmHg 76%

19 Mai, Mercredi

Heure Température Précipitation Vent Pression Humidité
00:00 +18°C° 0 mm 2 m/s 748 mmHg 78%
01:00 +17°C° 0 mm 3 m/s 748 mmHg 81%
02:00 +16°C° 0 mm 3 m/s 748 mmHg 84%
03:00 +14°C° 0 mm 3 m/s 748 mmHg 87%
04:00 +16°C° 0 mm 3 m/s 748 mmHg 86%
05:00 +16°C° 0 mm 3 m/s 749 mmHg 86%
06:00 +16°C° 0 mm 3 m/s 749 mmHg 85%
07:00 +18°C° 0 mm 4 m/s 749 mmHg 79%
08:00 +19°C° 0 mm 4 m/s 749 mmHg 74%
09:00 +21°C° 0 mm 5 m/s 749 mmHg 68%
10:00 +22°C° 0 mm 5 m/s 749 mmHg 63%
11:00 +23°C° 0 mm 6 m/s 749 mmHg 58%
12:00 +24°C° 0 mm 6 m/s 749 mmHg 52%
13:00 +24°C° 0 mm 6 m/s 749 mmHg 52%
14:00 +24°C° 0 mm 6 m/s 749 mmHg 52%
15:00 +25°C° 0 mm 5 m/s 749 mmHg 52%
16:00 +25°C° 0 mm 4 m/s 749 mmHg 54%
17:00 +25°C° 0 mm 3 m/s 749 mmHg 56%
18:00 +24°C° 0 mm 3 m/s 749 mmHg 58%
19:00 +22°C° 0.2 mm 3 m/s 749 mmHg 65%
20:00 +20°C° 0.2 mm 3 m/s 749 mmHg 71%
21:00 +19°C° 0.2 mm 3 m/s 749 mmHg 78%
22:00 +18°C° 0.2 mm 2 m/s 749 mmHg 83%
23:00 +17°C° 0.2 mm 2 m/s 749 mmHg 88%

20 Mai, Jeudi

Heure Température Précipitation Vent Pression Humidité
00:00 +16°C° 0.2 mm 1 m/s 749 mmHg 93%
01:00 +16°C° 0.5 mm 1 m/s 749 mmHg 93%
02:00 +16°C° 0.5 mm 2 m/s 749 mmHg 93%
03:00 +16°C° 0.5 mm 2 m/s 749 mmHg 94%
04:00 +16°C° 0.4 mm 2 m/s 749 mmHg 92%
05:00 +17°C° 0.4 mm 2 m/s 749 mmHg 91%
06:00 +17°C° 0.4 mm 2 m/s 749 mmHg 89%
07:00 +20°C° 0.1 mm 3 m/s 749 mmHg 80%
08:00 +22°C° 0.1 mm 5 m/s 749 mmHg 71%
09:00 +24°C° 0.1 mm 6 m/s 749 mmHg 62%
10:00 +26°C° 0 mm 7 m/s 749 mmHg 57%
11:00 +27°C° 0 mm 7 m/s 748 mmHg 52%
12:00 +28°C° 0 mm 8 m/s 748 mmHg 48%
13:00 +28°C° 0 mm 7 m/s 748 mmHg 48%
14:00 +28°C° 0 mm 6 m/s 748 mmHg 49%
15:00 +28°C° 0 mm 5 m/s 748 mmHg 49%
16:00 +28°C° 0 mm 4 m/s 748 mmHg 53%
17:00 +27°C° 0 mm 4 m/s 748 mmHg 57%
18:00 +26°C° 0 mm 3 m/s 748 mmHg 61%
19:00 +25°C° 0 mm 2 m/s 748 mmHg 61%
20:00 +24°C° 0 mm 2 m/s 748 mmHg 62%
21:00 +23°C° 0 mm 2 m/s 747 mmHg 63%
22:00 +23°C° 0.1 mm 2 m/s 747 mmHg 65%
23:00 +21°C° 0.1 mm 2 m/s 747 mmHg 67%
Voir plus

Nous avons besoin de votre consentement

Meteoprog et ses fournisseurs de services peuvent stocker et accéder à des données personnelles telles que des cookies, des identifiants d'appareils ou d'autres technologies similaires sur votre appareil et traiter ces données pour personnaliser le contenu et les publicités, ainsi que pour fournir des fonctionnalités de médias sociaux et analyser le trafic.

  • Stocker et/ou accéder à des informations sur votre appareil

    Des cookies, des identifiants d'appareils ou d'autres informations peuvent être stockés ou accessibles sur votre appareil aux fins indiquées ci-dessus.

  • Annonces et contenus personnalisés, mesure des annonces et des contenus, connaissance de l'audience et développement de produits

    Les annonces et le contenu peuvent être personnalisés en fonction d'un profil. D'autres données peuvent être ajoutées pour mieux personnaliser les annonces et le contenu. Les performances des publicités et du contenu peuvent être mesurées. Il est possible d'obtenir des informations sur le public qui a vu les publicités et le contenu. Ces données peuvent être utilisées pour développer ou améliorer l'expérience de l'utilisateur, les systèmes et les logiciels.

En cliquant sur "J'accepte", vous autorisez l'utilisation de cookies, des identifiants d'appareils, des balises web ou d'autres technologies similaires. Vos paramètres peuvent être modifiés dans le navigateur de votre appareil.

Dans certains cas, des intérêts légitimes peuvent être invoqués plutôt qu'un consentement. Vous pouvez en savoir plus à ce sujet dans notre Politique de confidentialité et de cookies.